Regional Weather Roundup
Issued by NWS

Home | Current Version | Previous Version | Text Only | Print | Product List | Glossary On
Versions: 1 2 3 4 5 6 7 8 9 10 11 12 13 14 15 16 17 18 19 20 21 22 23 24 25 26 27 28 29 30 31 32 33 34 35 36 37 38 39 40 41 42 43 44 45 46 47 48 49 50
584
ASUS43 KTOP 261508
RWRKS

WEATHER ROUNDUP FOR KANSAS
NATIONAL WEATHER SERVICE GOODLAND KS
1000 AM CDT THU MAY 26 2016

NOTE:  "FAIR" INDICATES FEW OR NO CLOUDS BELOW 12,000 FEET WITH NO
SIGNIFICANT WEATHER AND/OR OBSTRUCTIONS TO VISIBILITY.

KSZ001>006-013>018-027>032-041>047-261600-
NORTHWEST KANSAS

CITY           SKY/WX    TMP DP  RH WIND       PRES   REMARKS
GOODLAND       PTSUNNY   67  48  50 E12G20    29.89F
HAYS           CLOUDY    59  55  88 NE12      29.81F
HILL CITY      CLOUDY    66  54  65 E16       29.85F
RUSSELL        PTSUNNY   69  63  81 E10       29.80F
$$

KSZ061>065-074>080-084>089-261600-
SOUTHWEST KANSAS

CITY           SKY/WX    TMP DP  RH WIND       PRES   REMARKS
DODGE CITY     MOSUNNY   68  55  63 CALM      29.81R
ELKHART          N/A    N/A N/A N/A MISG        N/A
GARDEN CITY    MOSUNNY   67  60  78 NE10      29.80F
GREAT BEND     MOSUNNY   72  64  78 E8        29.80S
LIBERAL        MOSUNNY   70  46  43 NE9       29.80F
PRATT          CLOUDY    76  67  74 SW21      29.80R
$$

KSZ066>073-081>083-090>101-261600-
SOUTHEAST KANSAS

CITY           SKY/WX    TMP DP  RH WIND       PRES   REMARKS
CHANUTE        MOSUNNY   80  73  79 S16       29.86F
COFFEYVILLE    CLOUDY    80  73  79 S13       29.88R
HUTCHINSON     CLOUDY    79  72  79 S10       29.79S
MEDICINE LODGE   N/A     80  70  71 S15G22    29.78F
NEWTON         PTSUNNY   79  70  73 S16       29.83F
PARSONS        CLOUDY    80  74  81 S8G16     29.89F
WICHITA INTL   PTSUNNY   80  73  79 S18       29.79F HAZE
WICHITA JABRA  CLOUDY    79  73  82 S16G24    29.80S
WICHITA MCCONL PTSUNNY   79  73  83 S17       29.80F
WINFIELD       CLOUDY    79  74  84 S13       29.84S HAZE
$$

KSZ007>012-019>026-033>040-048>060-102>105-261600-
NORTHEAST KANSAS

CITY           SKY/WX    TMP DP  RH WIND       PRES   REMARKS
CONCORDIA      PTSUNNY   72  65  78 E10       29.83S
EMPORIA        CLOUDY    79  73  82 S10       29.84S
LAWRENCE       CLOUDY    69  66  90 SE9       29.86F THUNDER
MANHATTAN      CLOUDY    74  69  85 E8        29.82F
MARYSVILLE     CLOUDY    72  64  78 SE8       29.85S
OLATHE IND     LGT RAIN  72  66  81 SE9       29.90S
OLATHE EXE     CLOUDY    72  65  78 S8        29.90F THUNDER
SALINA         CLOUDY    77  71  82 E5        29.80F
TOPEKA BILLARD CLOUDY    67  65  93 N3        29.86F THUNDER
TOPEKA FORBES  CLOUDY    71  67  87 E9        29.86F
$$




USA.gov is the U.S. government's official web portal to all federal, state and local government web resources and services.